Stündliche Wetter Czyzykowo

Heute, 21 Oktober, Mittwoch

Zeit Temperatur Niederschläge Wind Luftdruck Luftfeuchtigkeit
00:00 +10°C° 0.2 mm 4 m/S 753 mmHg 87%
01:00 +10°C° 0.2 mm 4 m/S 753 mmHg 91%
02:00 +10°C° 0.3 mm 4 m/S 753 mmHg 92%
03:00 +10°C° 0.3 mm 4 m/S 753 mmHg 92%
04:00 +10°C° 0.3 mm 3 m/S 752 mmHg 93%
05:00 +10°C° 0.5 mm 4 m/S 752 mmHg 93%
06:00 +10°C° 0.5 mm 4 m/S 752 mmHg 93%
07:00 +10°C° 0.5 mm 4 m/S 752 mmHg 93%
08:00 +10°C° 0.2 mm 4 m/S 752 mmHg 90%
09:00 +10°C° 0.2 mm 4 m/S 753 mmHg 87%
10:00 +10°C° 0.2 mm 4 m/S 753 mmHg 84%
11:00 +11°C° 0 mm 4 m/S 752 mmHg 79%
12:00 +12°C° 0 mm 4 m/S 752 mmHg 75%
13:00 +13°C° 0 mm 5 m/S 752 mmHg 70%
14:00 +13°C° 0 mm 4 m/S 752 mmHg 71%
15:00 +12°C° 0 mm 4 m/S 751 mmHg 73%
16:00 +12°C° 0 mm 3 m/S 751 mmHg 74%
17:00 +12°C° 0 mm 4 m/S 751 mmHg 74%
18:00 +12°C° 0 mm 4 m/S 751 mmHg 75%
19:00 +12°C° 0 mm 4 m/S 751 mmHg 75%
20:00 +12°C° 0 mm 5 m/S 751 mmHg 73%
21:00 +12°C° 0 mm 5 m/S 751 mmHg 71%
22:00 +11°C° 0 mm 6 m/S 751 mmHg 69%
23:00 +13°C° 0 mm 6 m/S 751 mmHg 68%

Morgen, 22 Oktober, Donnerstag

Zeit Temperatur Niederschläge Wind Luftdruck Luftfeuchtigkeit
00:00 +13°C° 0 mm 6 m/S 751 mmHg 67%
01:00 +12°C° 0 mm 7 m/S 751 mmHg 65%
02:00 +13°C° 0 mm 6 m/S 751 mmHg 69%
03:00 +13°C° 0 mm 6 m/S 751 mmHg 73%
04:00 +13°C° 0 mm 6 m/S 751 mmHg 77%
05:00 +13°C° 0 mm 6 m/S 752 mmHg 80%
06:00 +13°C° 0 mm 5 m/S 752 mmHg 82%
07:00 +13°C° 0 mm 5 m/S 753 mmHg 85%
08:00 +14°C° 0 mm 5 m/S 753 mmHg 81%
09:00 +15°C° 0 mm 6 m/S 753 mmHg 76%
10:00 +16°C° 0 mm 6 m/S 753 mmHg 72%
11:00 +17°C° 0 mm 6 m/S 753 mmHg 69%
12:00 +19°C° 0 mm 6 m/S 753 mmHg 67%
13:00 +20°C° 0 mm 6 m/S 753 mmHg 64%
14:00 +19°C° 0 mm 5 m/S 753 mmHg 67%
15:00 +19°C° 0 mm 5 m/S 753 mmHg 70%
16:00 +18°C° 0 mm 4 m/S 753 mmHg 72%
17:00 +17°C° 0 mm 4 m/S 753 mmHg 75%
18:00 +15°C° 0 mm 4 m/S 753 mmHg 78%
19:00 +15°C° 0 mm 4 m/S 753 mmHg 81%
20:00 +14°C° 0 mm 4 m/S 753 mmHg 82%
21:00 +14°C° 0 mm 4 m/S 753 mmHg 83%
22:00 +14°C° 0 mm 4 m/S 753 mmHg 84%
23:00 +14°C° 0.1 mm 5 m/S 753 mmHg 82%

übermorgen, 23 Oktober, Freitag

Zeit Temperatur Niederschläge Wind Luftdruck Luftfeuchtigkeit
00:00 +14°C° 0.1 mm 5 m/S 753 mmHg 79%
01:00 +14°C° 0.1 mm 5 m/S 753 mmHg 77%
02:00 +14°C° 0.6 mm 5 m/S 752 mmHg 81%
03:00 +14°C° 0.6 mm 5 m/S 752 mmHg 85%
04:00 +14°C° 0.6 mm 5 m/S 752 mmHg 89%
05:00 +14°C° 0.1 mm 5 m/S 752 mmHg 90%
06:00 +13°C° 0.1 mm 5 m/S 752 mmHg 91%
07:00 +13°C° 0.1 mm 5 m/S 752 mmHg 91%
08:00 +14°C° 0.2 mm 5 m/S 752 mmHg 88%
09:00 +15°C° 0.2 mm 4 m/S 752 mmHg 85%
10:00 +15°C° 0.2 mm 4 m/S 752 mmHg 83%
11:00 +17°C° 0 mm 4 m/S 752 mmHg 79%
12:00 +17°C° 0 mm 4 m/S 752 mmHg 75%
13:00 +17°C° 0 mm 4 m/S 752 mmHg 70%
14:00 +17°C° 0 mm 3 m/S 752 mmHg 73%
15:00 +16°C° 0 mm 3 m/S 752 mmHg 75%
16:00 +16°C° 0 mm 2 m/S 751 mmHg 78%
17:00 +15°C° 0.1 mm 2 m/S 751 mmHg 82%
18:00 +15°C° 0.1 mm 2 m/S 751 mmHg 86%
19:00 +14°C° 0.1 mm 2 m/S 751 mmHg 89%
20:00 +14°C° 0.4 mm 2 m/S 751 mmHg 91%
21:00 +14°C° 0.4 mm 2 m/S 751 mmHg 92%
22:00 +14°C° 0.4 mm 2 m/S 751 mmHg 93%
23:00 +14°C° 0.3 mm 2 m/S 750 mmHg 92%

24 Oktober, Samstag

Zeit Temperatur Niederschläge Wind Luftdruck Luftfeuchtigkeit
00:00 +13°C° 0.3 mm 3 m/S 750 mmHg 91%
01:00 +13°C° 0.3 mm 3 m/S 750 mmHg 89%
02:00 +13°C° 0.3 mm 4 m/S 750 mmHg 87%
03:00 +13°C° 0.3 mm 5 m/S 750 mmHg 85%
04:00 +13°C° 0.3 mm 5 m/S 750 mmHg 83%
05:00 +11°C° 0.1 mm 6 m/S 750 mmHg 83%
06:00 +10°C° 0.1 mm 6 m/S 750 mmHg 82%
07:00 +9°C° 0.1 mm 6 m/S 750 mmHg 82%
08:00 +10°C° 0.2 mm 7 m/S 751 mmHg 78%
09:00 +10°C° 0.2 mm 8 m/S 752 mmHg 75%
10:00 +10°C° 0.2 mm 8 m/S 753 mmHg 72%
11:00 +10°C° 0.2 mm 8 m/S 753 mmHg 69%
12:00 +11°C° 0.2 mm 8 m/S 754 mmHg 66%
13:00 +11°C° 0.2 mm 8 m/S 754 mmHg 63%
14:00 +10°C° 0 mm 8 m/S 755 mmHg 65%
15:00 +10°C° 0 mm 7 m/S 755 mmHg 67%
16:00 +9°C° 0 mm 6 m/S 756 mmHg 69%
17:00 +9°C° 0 mm 5 m/S 756 mmHg 72%
18:00 +8°C° 0 mm 5 m/S 756 mmHg 75%
19:00 +7°C° 0 mm 4 m/S 757 mmHg 78%
20:00 +7°C° 0 mm 4 m/S 757 mmHg 80%
21:00 +7°C° 0 mm 3 m/S 757 mmHg 82%
22:00 +7°C° 0 mm 3 m/S 757 mmHg 83%
23:00 +5°C° 0 mm 3 m/S 757 mmHg 85%

25 Oktober, Sonntag

Zeit Temperatur Niederschläge Wind Luftdruck Luftfeuchtigkeit
00:00 +6°C° 0 mm 2 m/S 757 mmHg 86%
01:00 +6°C° 0 mm 2 m/S 757 mmHg 87%
02:00 +6°C° 0 mm 2 m/S 757 mmHg 87%
03:00 +6°C° 0 mm 2 m/S 757 mmHg 87%
04:00 +5°C° 0 mm 2 m/S 757 mmHg 87%
05:00 +5°C° 0 mm 2 m/S 757 mmHg 87%
06:00 +4°C° 0 mm 3 m/S 757 mmHg 87%
07:00 +4°C° 0 mm 3 m/S 757 mmHg 88%
08:00 +7°C° 0 mm 3 m/S 756 mmHg 85%
09:00 +8°C° 0 mm 3 m/S 756 mmHg 82%
10:00 +10°C° 0 mm 3 m/S 756 mmHg 79%
11:00 +11°C° 0 mm 4 m/S 756 mmHg 76%
12:00 +12°C° 0 mm 4 m/S 756 mmHg 72%
13:00 +14°C° 0 mm 4 m/S 755 mmHg 68%
14:00 +13°C° 0 mm 4 m/S 755 mmHg 71%
15:00 +13°C° 0 mm 3 m/S 755 mmHg 74%
16:00 +12°C° 0 mm 3 m/S 755 mmHg 77%
17:00 +11°C° 0 mm 3 m/S 755 mmHg 80%
18:00 +10°C° 0 mm 3 m/S 755 mmHg 84%
19:00 +10°C° 0 mm 3 m/S 755 mmHg 87%
20:00 +9°C° 0 mm 3 m/S 755 mmHg 88%
21:00 +9°C° 0 mm 3 m/S 755 mmHg 89%
22:00 +9°C° 0 mm 3 m/S 755 mmHg 90%
23:00 +9°C° 0 mm 3 m/S 754 mmHg 90%

26 Oktober, Montag

Zeit Temperatur Niederschläge Wind Luftdruck Luftfeuchtigkeit
00:00 +8°C° 0 mm 3 m/S 754 mmHg 90%
01:00 +8°C° 0 mm 3 m/S 754 mmHg 90%
02:00 +8°C° 0 mm 3 m/S 754 mmHg 90%
03:00 +8°C° 0 mm 3 m/S 754 mmHg 91%
04:00 +8°C° 0 mm 3 m/S 753 mmHg 92%
05:00 +7°C° 0 mm 3 m/S 753 mmHg 92%
06:00 +7°C° 0 mm 3 m/S 753 mmHg 93%
07:00 +7°C° 0 mm 3 m/S 753 mmHg 93%
08:00 +8°C° 0 mm 3 m/S 753 mmHg 88%
09:00 +10°C° 0 mm 3 m/S 753 mmHg 84%
10:00 +11°C° 0 mm 3 m/S 753 mmHg 79%
11:00 +12°C° 0 mm 3 m/S 753 mmHg 75%
12:00 +13°C° 0 mm 3 m/S 753 mmHg 71%
13:00 +14°C° 0 mm 3 m/S 753 mmHg 68%
14:00 +14°C° 0 mm 3 m/S 753 mmHg 70%
15:00 +14°C° 0 mm 2 m/S 753 mmHg 73%
16:00 +14°C° 0 mm 2 m/S 753 mmHg 75%
17:00 +13°C° 0 mm 2 m/S 753 mmHg 78%
18:00 +12°C° 0 mm 2 m/S 754 mmHg 81%
19:00 +10°C° 0 mm 2 m/S 754 mmHg 85%
20:00 +9°C° 0 mm 2 m/S 755 mmHg 85%
21:00 +9°C° 0 mm 2 m/S 755 mmHg 86%
22:00 +10°C° 0 mm 1 m/S 756 mmHg 87%
23:00 +8°C° 0 mm 2 m/S 756 mmHg 89%

27 Oktober, Dienstag

Zeit Temperatur Niederschläge Wind Luftdruck Luftfeuchtigkeit
00:00 +8°C° 0 mm 2 m/S 756 mmHg 91%
01:00 +8°C° 0 mm 2 m/S 756 mmHg 93%
02:00 +8°C° 0 mm 2 m/S 757 mmHg 93%
03:00 +8°C° 0 mm 2 m/S 757 mmHg 94%
04:00 +8°C° 0 mm 2 m/S 757 mmHg 94%
05:00 +8°C° 0 mm 2 m/S 758 mmHg 94%
06:00 +8°C° 0 mm 2 m/S 758 mmHg 94%
07:00 +8°C° 0 mm 2 m/S 759 mmHg 94%
08:00 +9°C° 0 mm 2 m/S 759 mmHg 89%
09:00 +10°C° 0 mm 2 m/S 759 mmHg 84%
10:00 +12°C° 0 mm 1 m/S 760 mmHg 79%
11:00 +13°C° 0 mm 2 m/S 760 mmHg 74%
12:00 +14°C° 0 mm 2 m/S 760 mmHg 70%
13:00 +14°C° 0 mm 2 m/S 760 mmHg 65%
14:00 +14°C° 0 mm 1 m/S 760 mmHg 68%
15:00 +13°C° 0 mm 1 m/S 760 mmHg 71%
16:00 +13°C° 0 mm 1 m/S 760 mmHg 74%
17:00 +12°C° 0 mm 1 m/S 760 mmHg 77%
18:00 +11°C° 0 mm 1 m/S 760 mmHg 80%
19:00 +10°C° 0 mm 1 m/S 760 mmHg 83%
20:00 +9°C° 0 mm 2 m/S 760 mmHg 85%
21:00 +9°C° 0 mm 2 m/S 760 mmHg 87%
22:00 +8°C° 0 mm 2 m/S 761 mmHg 89%
23:00 +8°C° 0 mm 2 m/S 760 mmHg 90%
Mehr zeigen

Wir brauchen deine Erlaubnis

Meteoprog und unser Service Anbieter werden persönliche Daten aufbewahren, so wie Cookies, Geräte Bezeichnung oder ähnliche Technologien von deinem Gerät und Prozess, so wie Persönliche Daten Inhalte und Werbungen, genauso wie social Media und den Verkehr zu analysieren.

  • Aufbewahrung und/oder Zugang zu deiner Geräte Informationen.

    Cookies, Geräte Bezeichnung oder andere Informationen, können aufbewahrt oder Zugang zu deinem Gerät erhalten, für den Grund, der oben angegeben wird.

  • Personalisierte Werbung und Inhalte, Messungen, Einblick in das Publikum und Produkt Entwicklung.

    Werbungen und Inhalte können personalisiert werden, basierend auf ein Profil. Mehr Daten können besser personalisierte Werbungen und Inhalte hinzufügen. Werbung und Inhalte können gezeigt und gemessen werden. Einblicke über das Publikum, welche die Werbung gesehen haben und den Inhalt, können abgeleitet werden. So wie Daten können genutzt werden, um es zu verbessern oder die Benutzer Erfahrung zu verbessern das System und die Software.

Wenn du “Ich stimme zu” klickst, erlaubst du uns, die Cookies zu benutzen die Geräte Bezeichnung, den Web oder ähnliche Technologien zu benutzen. Deine Settings, können in deinem Gerät bei deinem Browser geändert werden.

Für den bestimmten Zweck, berechtigten Interessen beruhen darauf, mehr als auf den Inhalt. Du kannst mehr darüber in unseren Privaten und Cookie Politik lesen.